RH
37 33 29 27 25 24 27 27 27 27 26 26 26 30 34 36 37 37 38 34 31 29 24 22 22 21 20 20 20 18 17 18 20
41 39 33 32 29 27 29 31 30 31 28 28 31 35 37 38 41 45 48 50 42 39 33 31 28 28 25 24 24 22 21 23 22
47 43 42 36 31 30 33 36 36 35 32 33 36 39 42 49 54 59 59 56 51 45 41 38 35 33 29 26 26 25 26 25 23
52 48 43 42 35 33 35 41 42 40 37 38 40 43 50 58 62 64 66 66 64 54 48 42 38 35 36 34 32 29 26 27 27
63 56 48 43 39 41 46 48 48 42 41 43 46 51 69 68 66 67 67 72 71 67 59 50 43 40 38 39 39 36 32 30 28
75 66 59 53 48 47 50 52 55 48 47 49 59 74 76 64 69 69 72 81 78 74 71 63 54 45 42 43 42 41 38 34 33
79 75 68 65 59 58 55 60 64 59 57 66 69 61 56 64 71 78 87 84 86 91 85 77 70 67 56 56 52 46 43 43 42
69 75 77 75 67 65 63 64 63 65 64 58 54 56 57 72 70 74 66 69 72 83 84 86 77 76 79 73 63 57 54 49 46
69 79 86 89 74 66 68 66 65 62 56 54 60 72 79 69 64 60 59 57 63 63 61 64 67 70 69 65 65 61 57 54 51
65 85 86 84 90 86 77 74 79 86 87 85 83 79 73 73 73 64 61 60 54 54 51 52 57 60 60 66 67 62 50 53 54
70 74 76 79 89 100 97 100 100 100 100 92 87 82 70 62 61 55 59 65 63 61 64 68 68 67 67 64 58 49 48 51 49
71 74 78 75 67 84 98 100 100 100 100 88 70 57 51 56 66 76 80 81 78 77 63 62 60 55 54 53 50 56 59 54 51
77 66 64 79 67 64 89 96 98 91 81 71 68 77 87 87 88 85 83 76 75 73 66 57 51 50 51 53 53 56 57 58 60
100 87 74 70 74 66 66 78 86 91 96 98 88 82 88 94 90 88 84 80 74 69 61 59 57 57 56 59 60 60 58 55 44
100 98 89 85 90 94 95 100 100 100 100 95 91 88 92 93 91 79 74 72 66 62 64 60 57 59 61 60 56 48 45 49 46
100 100 100 100 89 86 89 97 95 99 96 79 64 64 71 70 66 77 69 64 61 58 59 58 62 69 65 60 56 47 41 37 35
100 100 100 100 100 99 93 82 88 89 89 82 74 75 72 75 80 67 63 56 54 53 56 63 67 66 60 46 39 36 37 34 33
100 100 100 100 100 100 100 100 94 87 78 74 82 79 80 82 75 65 63 53 49 47 55 66 52 49 45 42 36 33 32 36 37
100 100 100 100 100 100 100 100 100 100 100 98 86 90 89 80 76 63 59 55 50 60 60 54 47 36 34 35 34 37 38 37 36
100 100 100 100 100 100 100 100 100 100 100 100 100 100 98 88 90 69 59 63 58 60 55 44 35 33 34 36 36 38 36 37 34
Wind_Speed
23 22 23 23 23 24 23 23 22 22 20 19 18 16 16 18 19 21 22 24 24 23 24 25 25 26 28 28 28 29 30 30 32
24 24 25 25 25 26 25 25 25 24 23 22 22 21 21 23 23 24 27 26 26 25 26 27 28 28 29 30 29 30 31 30 31
26 26 27 28 27 29 28 26 26 26 24 25 23 23 24 25 26 28 29 28 28 27 27 28 29 30 31 32 33 33 34 34 36
28 29 29 30 30 30 30 29 29 28 28 28 28 27 28 28 30 30 30 31 31 30 29 30 32 33 33 34 35 36 39 40 39
31 30 31 32 32 32 32 32 31 32 32 32 31 31 31 32 33 33 33 33 33 32 33 34 34 36 36 37 38 39 40 41 42
34 32 32 33 35 35 36 36 34 33 34 33 33 34 35 36 36 36 36 35 36 36 36 37 38 40 41 42 42 44 44 45 46
37 36 34 34 37 37 37 37 36 36 36 36 38 40 39 38 37 38 38 36 37 38 40 42 42 43 45 46 48 49 49 49 50
41 40 39 36 36 39 41 41 42 42 43 44 43 42 42 40 39 40 39 39 39 38 41 43 45 47 49 50 53 54 55 55 54
42 42 41 41 39 39 38 41 43 43 44 45 44 43 42 43 45 46 44 43 43 44 45 47 48 50 52 55 57 59 60 59 58
45 44 43 43 44 41 41 40 40 41 42 43 43 44 45 47 49 51 50 47 47 46 48 49 52 55 57 58 61 63 63 62 62
49 48 47 46 44 42 40 39 41 44 45 46 48 50 52 54 54 55 54 52 50 52 53 55 57 59 61 62 64 66 66 65 67
52 50 49 49 48 45 44 44 47 49 50 50 52 53 54 54 55 54 54 54 54 55 58 61 62 64 66 67 68 68 69 70 70
53 53 52 51 49 48 47 48 50 51 53 56 56 54 55 56 56 56 57 58 60 62 65 67 68 69 70 71 71 72 72 71 70
56 55 53 52 52 51 51 52 54 56 56 56 57 58 59 58 58 60 61 64 66 68 69 70 70 71 72 72 72 72 71 69 69
59 59 58 58 57 56 56 57 57 58 60 61 63 62 62 61 63 65 68 69 72 72 72 73 73 74 73 73 72 72 72 74 76
61 59 59 60 62 62 63 63 63 64 66 67 68 67 67 68 70 72 74 75 75 74 75 75 76 75 74 74 75 76 77 79 82
66 63 62 62 64 66 67 68 68 68 70 71 72 70 71 73 74 76 77 77 77 77 77 77 78 77 76 77 79 80 83 87 89
69 67 68 67 66 66 66 69 72 73 75 76 75 74 76 78 80 80 80 80 79 78 79 79 78 77 79 84 87 89 91 94 97
72 70 68 69 72 71 71 71 73 75 77 80 80 80 80 84 84 84 82 81 81 82 81 78 79 84 87 90 93 96 99 102 103
74 72 73 75 75 77 78 79 79 78 79 79 79 79 82 83 83 83 81 84 85 85 86 85 88 89 93 96 100 103 106 108 110
Wind_Direction
245 241 238 237 237 237 238 244 246 250 250 249 246 255 264 279 292 296 301 302 304 307 310 313 318 319 319 318 311 308 304 299 296
244 243 241 241 241 239 240 245 246 250 247 246 249 261 275 283 291 296 301 301 304 306 309 313 315 318 318 318 312 309 302 296 300
248 247 243 242 244 242 241 246 250 252 252 250 256 271 281 288 294 299 301 300 300 301 305 309 312 314 314 312 313 310 305 302 301
251 250 247 243 243 242 243 247 251 254 256 259 266 274 281 287 292 295 298 298 298 298 302 305 307 309 307 308 310 307 309 306 306
249 249 249 245 243 243 244 249 250 253 258 262 268 274 280 285 289 290 294 295 292 291 297 300 302 305 305 304 306 306 304 303 303
249 249 249 249 247 248 250 253 252 252 256 262 266 273 278 284 285 288 290 291 290 289 294 296 299 301 302 302 302 303 301 302 302
251 252 249 249 250 251 252 254 255 255 257 261 267 272 276 279 282 285 287 284 286 286 291 295 295 297 298 299 300 302 302 301 301
251 252 253 250 252 253 252 254 256 258 260 264 269 272 274 278 280 281 284 285 284 285 288 291 293 295 296 296 297 300 301 300 299
251 254 254 254 255 256 256 258 260 262 264 267 270 272 273 275 277 281 285 286 285 286 288 289 291 292 293 293 294 296 299 298 298
250 250 254 256 257 259 263 265 266 268 269 271 273 275 276 279 283 286 288 288 290 290 293 294 295 295 294 294 295 296 298 298 300
251 251 254 256 259 262 265 265 266 268 271 275 277 278 281 284 286 289 291 292 293 295 297 297 296 296 295 294 294 295 297 299 300
255 253 256 259 260 260 260 261 265 269 274 277 277 281 285 288 290 291 291 293 294 295 295 296 295 295 294 295 296 295 298 300 300
257 258 257 260 262 264 264 266 268 271 273 277 283 285 287 288 288 288 290 292 294 295 295 295 296 296 297 297 299 299 300 300 300
257 260 261 261 262 263 265 268 272 276 277 279 282 284 286 287 288 289 292 293 294 295 296 297 298 299 300 300 299 299 299 299 298
257 260 263 265 267 268 269 271 273 275 277 281 282 284 283 284 288 292 292 295 296 297 298 298 298 298 299 298 297 297 297 297 297
256 259 264 267 269 269 269 271 273 275 277 279 282 283 284 286 289 292 293 295 296 298 298 298 297 298 297 297 297 297 297 297 296
255 257 260 264 267 269 272 272 273 275 277 279 282 283 285 287 288 290 292 294 296 296 297 296 297 296 296 295 294 295 295 294 294
256 258 261 261 263 266 270 273 274 276 277 280 282 283 285 287 288 290 293 293 294 296 296 297 296 294 293 294 295 295 297 298 297
255 257 260 262 263 264 267 270 273 276 279 281 284 285 286 286 288 291 292 293 295 296 296 295 292 293 295 296 297 299 300 300 300
254 257 259 261 264 265 267 269 273 277 280 281 282 284 284 286 288 291 295 295 297 296 296 293 293 296 297 299 299 299 299 301 300